Airfield :
LOGIN :

Register | Disclaimer

   EN    FR    IT 

 










Legend :    VFR   Marginal VFR   IFR   Intensive IFR   Very Intensive IFR
Visi :
Ceiling :
>= 8 km
>= 3000ft
5 to 8 km
1000 to 3000 ft
1500m to 5 km
500 to 1000 ft
800 to 1500m
200 to 500 ft
< 800m
< 200 ft
Symbols :   Thunderstorms  Fog  Heavy snow  Heavy precipitations  Wind > 20 kt
SIGMETs :     Misc.  Thunderstorms  Icing  Turbulence  Mountain Waves  Volcanic Ashes







- Airport Elevation : 137 ft
- IATA code : THN


ESGT - Trollhattan-Vanersborg

CURRENT METAR :
  • 232020Z AUTO 24004KT 9999 NCD 12/09 Q1011

EXPIRED METARs :
  • 231950Z AUTO 23006KT 9999 NCD 13/09 Q1011
  • 231920Z 23007KT CAVOK 14/09 Q1011
  • 231850Z 21008KT CAVOK 15/08 Q1011
  • 231820Z 22011KT 9999 SCT037 BKN046 15/08 Q1011
  • 231750Z 21011KT 9999 BKN037 BKN045 16/08 Q1011

TAF TAF ESGT
Valid from the 23 at 18:00 until the 23 at 21:00 UTC


231730Z 2318/2321 22007KT CAVOK
No reported NOTAMs for that airfield.



MET'MAP, your aeronautical weather chart ! - Copyright ORBIFLY December 2007 - Disclaimer

ORBIFLY MET'MAP TEAM :

Programming & Development : Alexandra Zaïnal
Concept & Development : Baudouin d'Aumeries
Co-Development & Prog : Marc-Olivier Méhu
Technical & hardware support : Manuel Goepfert

Contact : metmap@orbifly.com




SOURCES & CREDITS :

   NOAA